Year,Month,Day,Hour,Minute,Value (Times are PST for temperature in C)
2012,03,25,00,00,4.40
2012,03,25,00,01,4.40
2012,03,25,00,02,4.40
2012,03,25,00,03,4.40
2012,03,25,00,04,4.40
2012,03,25,00,05,4.40
2012,03,25,00,06,4.40
2012,03,25,00,07,4.40
2012,03,25,00,08,4.50
2012,03,25,00,09,4.50
2012,03,25,00,10,4.50
2012,03,25,00,11,4.50
2012,03,25,00,12,4.60
2012,03,25,00,13,4.60
2012,03,25,00,14,4.60
2012,03,25,00,15,4.60
2012,03,25,00,16,4.60
2012,03,25,00,17,4.60
2012,03,25,00,18,4.60
2012,03,25,00,19,4.50
2012,03,25,00,20,4.50
2012,03,25,00,21,4.40
2012,03,25,00,22,4.40
2012,03,25,00,23,4.40
2012,03,25,00,24,4.40
2012,03,25,00,25,4.30
2012,03,25,00,26,4.30
2012,03,25,00,27,4.30
2012,03,25,00,28,4.30
2012,03,25,00,29,4.20
2012,03,25,00,30,4.20
2012,03,25,00,31,4.20
2012,03,25,00,32,4.20
2012,03,25,00,33,4.10
2012,03,25,00,34,4.10
2012,03,25,00,35,4.10
2012,03,25,00,36,4.00
2012,03,25,00,37,4.00
2012,03,25,00,38,4.00
2012,03,25,00,39,4.00
2012,03,25,00,40,4.00
2012,03,25,00,41,3.90
2012,03,25,00,42,3.90
2012,03,25,00,43,3.90
2012,03,25,00,44,3.90
2012,03,25,00,45,3.90
2012,03,25,00,46,3.90
2012,03,25,00,47,3.90
2012,03,25,00,48,3.90
2012,03,25,00,49,3.90
2012,03,25,00,50,3.90
2012,03,25,00,51,3.90
2012,03,25,00,52,3.90
2012,03,25,00,53,3.90
2012,03,25,00,54,3.90
2012,03,25,00,55,3.90
2012,03,25,00,56,4.00
2012,03,25,00,57,4.00
2012,03,25,00,58,4.00
2012,03,25,00,59,4.00
2012,03,25,01,00,4.00
2012,03,25,01,01,4.00
2012,03,25,01,02,4.00
2012,03,25,01,03,4.00
2012,03,25,01,04,4.00
2012,03,25,01,05,4.10
2012,03,25,01,06,4.10
2012,03,25,01,07,4.10
2012,03,25,01,08,4.10
2012,03,25,01,09,4.10
2012,03,25,01,10,4.10
2012,03,25,01,11,4.10
2012,03,25,01,12,4.10
2012,03,25,01,13,4.10
2012,03,25,01,14,4.10
2012,03,25,01,15,4.20
2012,03,25,01,16,4.20
2012,03,25,01,17,4.20
2012,03,25,01,18,4.20
2012,03,25,01,19,4.20
2012,03,25,01,20,4.20
2012,03,25,01,21,4.20
2012,03,25,01,22,4.20
2012,03,25,01,23,4.20
2012,03,25,01,24,4.20
2012,03,25,01,25,4.20
2012,03,25,01,26,4.20
2012,03,25,01,27,4.30
2012,03,25,01,28,4.30
2012,03,25,01,29,4.30
2012,03,25,01,30,4.30
2012,03,25,01,31,4.40
2012,03,25,01,32,4.50
2012,03,25,01,33,4.60
2012,03,25,01,34,4.70
2012,03,25,01,35,4.80
2012,03,25,01,36,4.90
2012,03,25,01,37,4.90
2012,03,25,01,38,5.00
2012,03,25,01,39,5.00
2012,03,25,01,40,5.10
2012,03,25,01,41,5.10
2012,03,25,01,42,5.10
2012,03,25,01,43,5.00
2012,03,25,01,44,5.00
2012,03,25,01,45,5.00
2012,03,25,01,46,5.00
2012,03,25,01,47,5.00
2012,03,25,01,48,5.00
2012,03,25,01,49,4.90
2012,03,25,01,50,4.90
2012,03,25,01,51,4.90
2012,03,25,01,52,4.80
2012,03,25,01,53,4.80
2012,03,25,01,54,4.80
2012,03,25,01,55,4.70
2012,03,25,01,56,4.70
2012,03,25,01,57,4.60
2012,03,25,01,58,4.60
2012,03,25,01,59,4.60
2012,03,25,02,00,4.50
2012,03,25,02,01,4.50
2012,03,25,02,02,4.50
2012,03,25,02,03,4.40
2012,03,25,02,04,4.40
2012,03,25,02,05,4.40
2012,03,25,02,06,4.40
2012,03,25,02,07,4.30
2012,03,25,02,08,4.30
2012,03,25,02,09,4.30
2012,03,25,02,10,4.30
2012,03,25,02,11,4.30
2012,03,25,02,12,4.20
2012,03,25,02,13,4.20
2012,03,25,02,14,4.20
2012,03,25,02,15,4.20
2012,03,25,02,16,4.10
2012,03,25,02,17,4.10
2012,03,25,02,18,4.10
2012,03,25,02,19,4.10
2012,03,25,02,20,4.10
2012,03,25,02,21,4.10
2012,03,25,02,22,4.10
2012,03,25,02,23,4.10
2012,03,25,02,24,4.10
2012,03,25,02,25,4.00
2012,03,25,02,26,4.00
2012,03,25,02,27,4.00
2012,03,25,02,28,3.90
2012,03,25,02,29,3.90
2012,03,25,02,30,3.90
2012,03,25,02,31,3.90
2012,03,25,02,32,3.90
2012,03,25,02,33,3.80
2012,03,25,02,34,3.80
2012,03,25,02,35,3.80
2012,03,25,02,36,3.80
2012,03,25,02,37,3.80
2012,03,25,02,38,3.80
2012,03,25,02,39,3.80
2012,03,25,02,40,3.80
2012,03,25,02,41,3.80
2012,03,25,02,42,3.80
2012,03,25,02,43,3.90
2012,03,25,02,44,3.90
2012,03,25,02,45,3.90
2012,03,25,02,46,3.90
2012,03,25,02,47,4.00
2012,03,25,02,48,4.00
2012,03,25,02,49,4.10
2012,03,25,02,50,4.10
2012,03,25,02,51,4.20
2012,03,25,02,52,4.20
2012,03,25,02,53,4.20
2012,03,25,02,54,4.20
2012,03,25,02,55,4.20
2012,03,25,02,56,4.20
2012,03,25,02,57,4.20
2012,03,25,02,58,4.20
2012,03,25,02,59,4.20
2012,03,25,03,00,4.20
2012,03,25,03,01,4.20
2012,03,25,03,02,4.30
2012,03,25,03,03,4.30
2012,03,25,03,04,4.30
2012,03,25,03,05,4.30
2012,03,25,03,06,4.30
2012,03,25,03,07,4.30
2012,03,25,03,08,4.30
2012,03,25,03,09,4.30
2012,03,25,03,10,4.30
2012,03,25,03,11,4.20
2012,03,25,03,12,4.20
2012,03,25,03,13,4.20
2012,03,25,03,14,4.20
2012,03,25,03,15,4.20
2012,03,25,03,16,4.20
2012,03,25,03,17,4.20
2012,03,25,03,18,4.20
2012,03,25,03,19,4.30
2012,03,25,03,20,4.30
2012,03,25,03,21,4.30
2012,03,25,03,22,4.40
2012,03,25,03,23,4.40
2012,03,25,03,24,4.40
2012,03,25,03,25,4.50
2012,03,25,03,26,4.50
2012,03,25,03,27,4.50
2012,03,25,03,28,4.50
2012,03,25,03,29,4.50
2012,03,25,03,30,4.50
2012,03,25,03,31,4.50
2012,03,25,03,32,4.50
2012,03,25,03,33,4.60
2012,03,25,03,34,4.60
2012,03,25,03,35,4.70
2012,03,25,03,36,4.80
2012,03,25,03,37,4.80
2012,03,25,03,38,4.90
2012,03,25,03,39,4.90
2012,03,25,03,40,4.90
2012,03,25,03,41,5.00
2012,03,25,03,42,4.90
2012,03,25,03,43,4.90
2012,03,25,03,44,4.90
2012,03,25,03,45,4.90
2012,03,25,03,46,4.90
2012,03,25,03,47,4.90
2012,03,25,03,48,4.90
2012,03,25,03,49,4.90
2012,03,25,03,50,5.00
2012,03,25,03,51,5.10
2012,03,25,03,52,5.20
2012,03,25,03,53,5.40
2012,03,25,03,54,5.50
2012,03,25,03,55,5.60
2012,03,25,03,56,5.70
2012,03,25,03,57,5.80
2012,03,25,03,58,5.90
2012,03,25,03,59,6.00
2012,03,25,04,00,6.00
2012,03,25,04,01,6.10
2012,03,25,04,02,6.10
2012,03,25,04,03,6.10
2012,03,25,04,04,6.10
2012,03,25,04,05,6.10
2012,03,25,04,06,6.10
2012,03,25,04,07,6.20
2012,03,25,04,08,6.20
2012,03,25,04,09,6.20
2012,03,25,04,10,6.20
2012,03,25,04,11,6.20
2012,03,25,04,12,6.20
2012,03,25,04,13,6.10
2012,03,25,04,14,6.10
2012,03,25,04,15,6.10
2012,03,25,04,16,6.10
2012,03,25,04,17,6.00
2012,03,25,04,18,6.00
2012,03,25,04,19,6.00
2012,03,25,04,20,5.90
2012,03,25,04,21,5.90
2012,03,25,04,22,5.90
2012,03,25,04,23,5.90
2012,03,25,04,24,5.90
2012,03,25,04,25,5.90
2012,03,25,04,26,5.90
2012,03,25,04,27,5.90
2012,03,25,04,28,6.00
2012,03,25,04,29,6.00
2012,03,25,04,30,6.00
2012,03,25,04,31,6.00
2012,03,25,04,32,6.00
2012,03,25,04,33,6.00
2012,03,25,04,34,5.90
2012,03,25,04,35,5.90
2012,03,25,04,36,5.90
2012,03,25,04,37,5.90
2012,03,25,04,38,5.90
2012,03,25,04,39,5.80
2012,03,25,04,40,5.80
2012,03,25,04,41,5.80
2012,03,25,04,42,5.80
2012,03,25,04,43,5.70
2012,03,25,04,44,5.70
2012,03,25,04,45,5.70
2012,03,25,04,46,5.60
2012,03,25,04,47,5.60
2012,03,25,04,48,5.60
2012,03,25,04,49,5.60
2012,03,25,04,50,5.50
2012,03,25,04,51,5.50
2012,03,25,04,52,5.50
2012,03,25,04,53,5.40
2012,03,25,04,54,5.40
2012,03,25,04,55,5.40
2012,03,25,04,56,5.40
2012,03,25,04,57,5.40
2012,03,25,04,58,5.30
2012,03,25,04,59,5.30
2012,03,25,05,00,5.30
2012,03,25,05,01,5.30
2012,03,25,05,02,5.30
2012,03,25,05,03,5.30
2012,03,25,05,04,5.30
2012,03,25,05,05,5.30
2012,03,25,05,06,5.30
2012,03,25,05,07,5.20
2012,03,25,05,08,5.20
2012,03,25,05,09,5.10
2012,03,25,05,10,5.10
2012,03,25,05,11,5.00
2012,03,25,05,12,5.00
2012,03,25,05,13,4.90
2012,03,25,05,14,4.80
2012,03,25,05,15,4.80
2012,03,25,05,16,4.70
2012,03,25,05,17,4.70
2012,03,25,05,18,4.70
2012,03,25,05,19,4.60
2012,03,25,05,20,4.60
2012,03,25,05,21,4.60
2012,03,25,05,22,4.50
2012,03,25,05,23,4.50
2012,03,25,05,24,4.50
2012,03,25,05,25,4.50
2012,03,25,05,26,4.40
2012,03,25,05,27,4.40
2012,03,25,05,28,4.40
2012,03,25,05,29,4.40
2012,03,25,05,30,4.40
2012,03,25,05,31,4.40
2012,03,25,05,32,4.40
2012,03,25,05,33,4.40
2012,03,25,05,34,4.50
2012,03,25,05,35,4.50
2012,03,25,05,36,4.60
2012,03,25,05,37,4.60
2012,03,25,05,38,4.60
2012,03,25,05,39,4.70
2012,03,25,05,40,4.80
2012,03,25,05,41,4.80
2012,03,25,05,42,4.90
2012,03,25,05,43,5.00
2012,03,25,05,44,5.00
2012,03,25,05,45,5.10
2012,03,25,05,46,5.20
2012,03,25,05,47,5.20
2012,03,25,05,48,5.30
2012,03,25,05,49,5.30
2012,03,25,05,50,5.40
2012,03,25,05,51,5.40
2012,03,25,05,52,5.50
2012,03,25,05,53,5.50
2012,03,25,05,54,5.50
2012,03,25,05,55,5.50
2012,03,25,05,56,5.50
2012,03,25,05,57,5.60
2012,03,25,05,58,5.60
2012,03,25,05,59,5.60
2012,03,25,06,00,5.60
2012,03,25,06,01,5.70
2012,03,25,06,02,5.70
2012,03,25,06,03,5.70
2012,03,25,06,04,5.70
2012,03,25,06,05,5.70
2012,03,25,06,06,5.70
2012,03,25,06,07,5.70
2012,03,25,06,08,5.70
2012,03,25,06,09,5.80
2012,03,25,06,10,5.80
2012,03,25,06,11,5.90
2012,03,25,06,12,5.90
2012,03,25,06,13,5.90
2012,03,25,06,14,5.90
2012,03,25,06,15,5.80
2012,03,25,06,16,5.80
2012,03,25,06,17,5.70
2012,03,25,06,18,5.70
2012,03,25,06,19,5.60
2012,03,25,06,20,5.60
2012,03,25,06,21,5.50
2012,03,25,06,22,5.50
2012,03,25,06,23,5.50
2012,03,25,06,24,5.40
2012,03,25,06,25,5.40
2012,03,25,06,26,5.40
2012,03,25,06,27,5.50
2012,03,25,06,28,5.50
2012,03,25,06,29,5.50
2012,03,25,06,30,5.60
2012,03,25,06,31,5.60
2012,03,25,06,32,5.60
2012,03,25,06,33,5.60
2012,03,25,06,34,5.60
2012,03,25,06,35,5.50
2012,03,25,06,36,5.50
2012,03,25,06,37,5.50
2012,03,25,06,38,5.40
2012,03,25,06,39,5.40
2012,03,25,06,40,5.40
2012,03,25,06,41,5.40
2012,03,25,06,42,5.40
2012,03,25,06,43,5.30
2012,03,25,06,44,5.30
2012,03,25,06,45,5.30
2012,03,25,06,46,5.30
2012,03,25,06,47,5.20
2012,03,25,06,48,5.20
2012,03,25,06,49,5.20
2012,03,25,06,50,5.20
2012,03,25,06,51,5.20
2012,03,25,06,52,5.20
2012,03,25,06,53,5.30
2012,03,25,06,54,5.40
2012,03,25,06,55,5.50
2012,03,25,06,56,5.60
2012,03,25,06,57,5.70
2012,03,25,06,58,5.80
2012,03,25,06,59,5.90
2012,03,25,07,00,6.00
2012,03,25,07,01,6.10
2012,03,25,07,02,6.10
2012,03,25,07,03,6.20
2012,03,25,07,04,6.20
2012,03,25,07,05,6.30
2012,03,25,07,06,6.30
2012,03,25,07,07,6.30
2012,03,25,07,08,6.30
2012,03,25,07,09,6.30
2012,03,25,07,10,6.30
2012,03,25,07,11,6.30
2012,03,25,07,12,6.30
2012,03,25,07,13,6.30
2012,03,25,07,14,6.30
2012,03,25,07,15,6.30
2012,03,25,07,16,6.30
2012,03,25,07,17,6.30
2012,03,25,07,18,6.30
2012,03,25,07,19,6.30
2012,03,25,07,20,6.20
2012,03,25,07,21,6.20
2012,03,25,07,22,6.20
2012,03,25,07,23,6.20
2012,03,25,07,24,6.20
2012,03,25,07,25,6.20
2012,03,25,07,26,6.20
2012,03,25,07,27,6.10
2012,03,25,07,28,6.10
2012,03,25,07,29,6.10
2012,03,25,07,30,6.10
2012,03,25,07,31,6.10
2012,03,25,07,32,6.00
2012,03,25,07,33,6.00
2012,03,25,07,34,6.00
2012,03,25,07,35,6.00
2012,03,25,07,36,5.90
2012,03,25,07,37,5.90
2012,03,25,07,38,5.90
2012,03,25,07,39,5.90
2012,03,25,07,40,5.90
2012,03,25,07,41,5.90
2012,03,25,07,42,5.90
2012,03,25,07,43,5.90
2012,03,25,07,44,5.90
2012,03,25,07,45,5.90
2012,03,25,07,46,6.00
2012,03,25,07,47,6.00
2012,03,25,07,48,6.00
2012,03,25,07,49,6.00
2012,03,25,07,50,6.00
2012,03,25,07,51,6.00
2012,03,25,07,52,6.00
2012,03,25,07,53,6.00
2012,03,25,07,54,6.00
2012,03,25,07,55,5.90
2012,03,25,07,56,5.90
2012,03,25,07,57,5.90
2012,03,25,07,58,5.80
2012,03,25,07,59,5.80
2012,03,25,08,00,5.80
2012,03,25,08,01,5.80
2012,03,25,08,02,5.80
2012,03,25,08,03,5.80
2012,03,25,08,04,5.90
2012,03,25,08,05,5.90
2012,03,25,08,06,6.00
2012,03,25,08,07,6.00
2012,03,25,08,08,6.10
2012,03,25,08,09,6.10
2012,03,25,08,10,6.20
2012,03,25,08,11,6.20
2012,03,25,08,12,6.30
2012,03,25,08,13,6.30
2012,03,25,08,14,6.30
2012,03,25,08,15,6.40
2012,03,25,08,16,6.40
2012,03,25,08,17,6.50
2012,03,25,08,18,6.50
2012,03,25,08,19,6.50
2012,03,25,08,20,6.60
2012,03,25,08,21,6.60
2012,03,25,08,22,6.70
2012,03,25,08,23,6.70
2012,03,25,08,24,6.70
2012,03,25,08,25,6.80
2012,03,25,08,26,6.80
2012,03,25,08,27,6.80
2012,03,25,08,28,6.90
2012,03,25,08,29,7.00
2012,03,25,08,30,7.00
2012,03,25,08,31,7.10
2012,03,25,08,32,7.10
2012,03,25,08,33,7.20
2012,03,25,08,34,7.20
2012,03,25,08,35,7.30
2012,03,25,08,36,7.30
2012,03,25,08,37,7.30
2012,03,25,08,38,7.40
2012,03,25,08,39,7.40
2012,03,25,08,40,7.50
2012,03,25,08,41,7.50
2012,03,25,08,42,7.60
2012,03,25,08,43,7.60
2012,03,25,08,44,7.70
2012,03,25,08,45,7.70
2012,03,25,08,46,7.70
2012,03,25,08,47,7.70
2012,03,25,08,48,7.70
2012,03,25,08,49,7.70
2012,03,25,08,50,7.80
2012,03,25,08,51,7.80
2012,03,25,08,52,7.80
2012,03,25,08,53,7.80
2012,03,25,08,54,7.80
2012,03,25,08,55,7.80
2012,03,25,08,56,7.90
2012,03,25,08,57,7.90
2012,03,25,08,58,7.90
2012,03,25,08,59,7.90
2012,03,25,09,00,8.00
2012,03,25,09,01,8.00
2012,03,25,09,02,8.00
2012,03,25,09,03,8.00
2012,03,25,09,04,8.00
2012,03,25,09,05,8.10
2012,03,25,09,06,8.10
2012,03,25,09,07,8.10
2012,03,25,09,08,8.10
2012,03,25,09,09,8.10
2012,03,25,09,10,8.10
2012,03,25,09,11,8.10
2012,03,25,09,12,8.20
2012,03,25,09,13,8.20
2012,03,25,09,14,8.20
2012,03,25,09,15,8.20
2012,03,25,09,16,8.20
2012,03,25,09,17,8.20
2012,03,25,09,18,8.20
2012,03,25,09,19,8.30
2012,03,25,09,20,8.30
2012,03,25,09,21,8.30
2012,03,25,09,22,8.30
2012,03,25,09,23,8.30
2012,03,25,09,24,8.30
2012,03,25,09,25,8.30
2012,03,25,09,26,8.30
2012,03,25,09,27,8.30
2012,03,25,09,28,8.30
2012,03,25,09,29,8.30
2012,03,25,09,30,8.30
2012,03,25,09,31,8.40
2012,03,25,09,32,8.40
2012,03,25,09,33,8.40
2012,03,25,09,34,8.40
2012,03,25,09,35,8.40
2012,03,25,09,36,8.40
2012,03,25,09,37,8.40
2012,03,25,09,38,8.50
2012,03,25,09,39,8.50
2012,03,25,09,40,8.60
2012,03,25,09,41,8.60
2012,03,25,09,42,8.60
2012,03,25,09,43,8.60
2012,03,25,09,44,8.70
2012,03,25,09,45,8.70
2012,03,25,09,46,8.70
2012,03,25,09,47,8.70
2012,03,25,09,48,8.70
2012,03,25,09,49,8.70
2012,03,25,09,50,8.70
2012,03,25,09,51,8.80
2012,03,25,09,52,8.80
2012,03,25,09,53,8.90
2012,03,25,09,54,8.90
2012,03,25,09,55,9.00
2012,03,25,09,56,9.00
2012,03,25,09,57,9.10
2012,03,25,09,58,9.10
2012,03,25,09,59,9.10
2012,03,25,10,00,9.10
2012,03,25,10,01,9.10
2012,03,25,10,02,9.10
2012,03,25,10,03,9.10
2012,03,25,10,04,9.10
2012,03,25,10,05,9.10
2012,03,25,10,06,9.10
2012,03,25,10,07,9.10
2012,03,25,10,08,9.10
2012,03,25,10,09,9.20
2012,03,25,10,10,9.20
2012,03,25,10,11,9.30
2012,03,25,10,12,9.30
2012,03,25,10,13,9.40
2012,03,25,10,14,9.40
2012,03,25,10,15,9.40
2012,03,25,10,16,9.50
2012,03,25,10,17,9.50
2012,03,25,10,18,9.60
2012,03,25,10,19,9.60
2012,03,25,10,20,9.60
2012,03,25,10,21,9.60
2012,03,25,10,22,9.60
2012,03,25,10,23,9.60
2012,03,25,10,24,9.60
2012,03,25,10,25,9.60
2012,03,25,10,26,9.60
2012,03,25,10,27,9.60
2012,03,25,10,28,9.70
2012,03,25,10,29,9.70
2012,03,25,10,30,9.80
2012,03,25,10,31,9.80
2012,03,25,10,32,9.80
2012,03,25,10,33,9.80
2012,03,25,10,34,9.80
2012,03,25,10,35,9.80
2012,03,25,10,36,9.90
2012,03,25,10,37,9.90
2012,03,25,10,38,10.00
2012,03,25,10,39,10.10
2012,03,25,10,40,10.10
2012,03,25,10,41,10.10
2012,03,25,10,42,10.10
2012,03,25,10,43,10.10
2012,03,25,10,44,10.10
2012,03,25,10,45,10.10
2012,03,25,10,46,10.10
2012,03,25,10,47,10.10
2012,03,25,10,48,10.10
2012,03,25,10,49,10.10
2012,03,25,10,50,10.00
2012,03,25,10,51,10.10
2012,03,25,10,52,10.10
2012,03,25,10,53,10.10
2012,03,25,10,54,10.10
2012,03,25,10,55,10.10
2012,03,25,10,56,10.10
2012,03,25,10,57,10.20
2012,03,25,10,58,10.30
2012,03,25,10,59,10.30
2012,03,25,11,00,10.30
2012,03,25,11,01,10.30
2012,03,25,11,02,10.30
2012,03,25,11,03,10.40
2012,03,25,11,04,10.50
2012,03,25,11,05,10.50
2012,03,25,11,06,10.60
2012,03,25,11,07,10.60
2012,03,25,11,08,10.50
2012,03,25,11,09,10.50
2012,03,25,11,10,10.50
2012,03,25,11,11,10.50
2012,03,25,11,12,10.50
2012,03,25,11,13,10.50
2012,03,25,11,14,10.50
2012,03,25,11,15,10.60
2012,03,25,11,16,10.70
2012,03,25,11,17,10.60
2012,03,25,11,18,10.60
2012,03,25,11,19,10.50
2012,03,25,11,20,10.50
2012,03,25,11,21,10.50
2012,03,25,11,22,10.50
2012,03,25,11,23,10.60
2012,03,25,11,24,10.60
2012,03,25,11,25,10.60
2012,03,25,11,26,10.70
2012,03,25,11,27,10.70
2012,03,25,11,28,10.70
2012,03,25,11,29,10.60
2012,03,25,11,30,10.60
2012,03,25,11,31,10.70
2012,03,25,11,32,10.70
2012,03,25,11,33,10.80
2012,03,25,11,34,10.80
2012,03,25,11,35,10.90
2012,03,25,11,36,10.90
2012,03,25,11,37,10.90
2012,03,25,11,38,10.90
2012,03,25,11,39,10.90
2012,03,25,11,40,10.90
2012,03,25,11,41,10.80
2012,03,25,11,42,10.80
2012,03,25,11,43,10.90
2012,03,25,11,44,10.90
2012,03,25,11,45,10.90
2012,03,25,11,46,10.90
2012,03,25,11,47,10.90
2012,03,25,11,48,10.90
2012,03,25,11,49,11.00
2012,03,25,11,50,11.00
2012,03,25,11,51,11.10
2012,03,25,11,52,11.10
2012,03,25,11,53,11.10
2012,03,25,11,54,11.10
2012,03,25,11,55,11.10
2012,03,25,11,56,11.10
2012,03,25,11,57,11.20
2012,03,25,11,58,11.20
2012,03,25,11,59,11.20
2012,03,25,12,00,11.20
2012,03,25,12,01,11.20
2012,03,25,12,02,11.20
2012,03,25,12,03,11.30
2012,03,25,12,04,11.30
2012,03,25,12,05,11.40
2012,03,25,12,06,11.40
2012,03,25,12,07,11.40
2012,03,25,12,08,11.40
2012,03,25,12,09,11.50
2012,03,25,12,10,11.50
2012,03,25,12,11,11.60
2012,03,25,12,12,11.60
2012,03,25,12,13,11.60
2012,03,25,12,14,11.50
2012,03,25,12,15,11.60
2012,03,25,12,16,11.60
2012,03,25,12,17,11.60
2012,03,25,12,18,11.60
2012,03,25,12,19,11.60
2012,03,25,12,20,11.50
2012,03,25,12,21,11.50
2012,03,25,12,22,11.40
2012,03,25,12,23,11.40
2012,03,25,12,24,11.40
2012,03,25,12,25,11.40
2012,03,25,12,26,11.50
2012,03,25,12,27,11.50
2012,03,25,12,28,11.50
2012,03,25,12,29,11.60
2012,03,25,12,30,11.60
2012,03,25,12,31,11.50
2012,03,25,12,32,11.50
2012,03,25,12,33,11.40
2012,03,25,12,34,11.40
2012,03,25,12,35,11.30
2012,03,25,12,36,11.30
2012,03,25,12,37,11.20
2012,03,25,12,38,11.20
2012,03,25,12,39,11.20
2012,03,25,12,40,11.30
2012,03,25,12,41,11.30
2012,03,25,12,42,11.30
2012,03,25,12,43,11.30
2012,03,25,12,44,11.30
2012,03,25,12,45,11.30
2012,03,25,12,46,11.30
2012,03,25,12,47,11.40
2012,03,25,12,48,11.50
2012,03,25,12,49,11.50
2012,03,25,12,50,11.60
2012,03,25,12,51,11.60
2012,03,25,12,52,11.70
2012,03,25,12,53,11.80
2012,03,25,12,54,11.80
2012,03,25,12,55,11.90
2012,03,25,12,56,11.90
2012,03,25,12,57,11.90
2012,03,25,12,58,11.90
2012,03,25,12,59,12.00
2012,03,25,13,00,12.00
2012,03,25,13,01,12.00
2012,03,25,13,02,12.00
2012,03,25,13,03,12.00
2012,03,25,13,04,12.00
2012,03,25,13,05,12.00
2012,03,25,13,06,12.00
2012,03,25,13,07,12.00
2012,03,25,13,08,12.00
2012,03,25,13,09,12.00
2012,03,25,13,10,12.00
2012,03,25,13,11,12.00
2012,03,25,13,12,12.10
2012,03,25,13,13,12.00
2012,03,25,13,14,12.00
2012,03,25,13,15,12.00
2012,03,25,13,16,11.90
2012,03,25,13,17,11.90
2012,03,25,13,18,11.90
2012,03,25,13,19,11.80
2012,03,25,13,20,11.90
2012,03,25,13,21,11.90
2012,03,25,13,22,11.90
2012,03,25,13,23,11.90
2012,03,25,13,24,11.90
2012,03,25,13,25,11.90
2012,03,25,13,26,11.90
2012,03,25,13,27,12.00
2012,03,25,13,28,12.00
2012,03,25,13,29,12.10
2012,03,25,13,30,12.10
2012,03,25,13,31,12.10
2012,03,25,13,32,12.10
2012,03,25,13,33,12.10
2012,03,25,13,34,12.10
2012,03,25,13,35,12.20
2012,03,25,13,36,12.20
2012,03,25,13,37,12.30
2012,03,25,13,38,12.30
2012,03,25,13,39,12.30
2012,03,25,13,40,12.30
2012,03,25,13,41,12.30
2012,03,25,13,42,12.20
2012,03,25,13,43,12.30
2012,03,25,13,44,12.30
2012,03,25,13,45,12.40
2012,03,25,13,46,12.40
2012,03,25,13,47,12.40
2012,03,25,13,48,12.40
2012,03,25,13,49,12.50
2012,03,25,13,50,12.50
2012,03,25,13,51,12.60
2012,03,25,13,52,12.70
2012,03,25,13,53,12.80
2012,03,25,13,54,12.90
2012,03,25,13,55,12.90
2012,03,25,13,56,12.90
2012,03,25,13,57,12.90
2012,03,25,13,58,12.80
2012,03,25,13,59,12.80
2012,03,25,14,00,12.80
2012,03,25,14,01,12.80
2012,03,25,14,02,12.70
2012,03,25,14,03,12.70
2012,03,25,14,04,12.70
2012,03,25,14,05,12.70
2012,03,25,14,06,12.80
2012,03,25,14,07,12.80
2012,03,25,14,08,12.80
2012,03,25,14,09,12.80
2012,03,25,14,10,12.90
2012,03,25,14,11,12.90
2012,03,25,14,12,13.00
2012,03,25,14,13,13.10
2012,03,25,14,14,13.10
2012,03,25,14,15,13.10
2012,03,25,14,16,13.10
2012,03,25,14,17,13.10
2012,03,25,14,18,13.10
2012,03,25,14,19,13.10
2012,03,25,14,20,13.20
2012,03,25,14,21,13.20
2012,03,25,14,22,13.30
2012,03,25,14,23,13.40
2012,03,25,14,24,13.40
2012,03,25,14,25,13.40
2012,03,25,14,26,13.40
2012,03,25,14,27,13.40
2012,03,25,14,28,13.40
2012,03,25,14,29,13.40
2012,03,25,14,30,13.50
2012,03,25,14,31,13.50
2012,03,25,14,32,13.50
2012,03,25,14,33,13.50
2012,03,25,14,34,13.50
2012,03,25,14,35,13.50
2012,03,25,14,36,13.50
2012,03,25,14,37,13.50
2012,03,25,14,38,13.50
2012,03,25,14,39,13.50
2012,03,25,14,40,13.40
2012,03,25,14,41,13.40
2012,03,25,14,42,13.40
2012,03,25,14,43,13.30
2012,03,25,14,44,13.30
2012,03,25,14,45,13.30
2012,03,25,14,46,13.30
2012,03,25,14,47,13.30
2012,03,25,14,48,13.30
2012,03,25,14,49,13.30
2012,03,25,14,50,13.40
2012,03,25,14,51,13.40
2012,03,25,14,52,13.50
2012,03,25,14,53,13.50
2012,03,25,14,54,13.60
2012,03,25,14,55,13.60
2012,03,25,14,56,13.60
2012,03,25,14,57,13.70
2012,03,25,14,58,13.60
2012,03,25,14,59,13.60
2012,03,25,15,00,13.70
2012,03,25,15,01,13.70
2012,03,25,15,02,13.70
2012,03,25,15,03,13.70
2012,03,25,15,04,13.70
2012,03,25,15,05,13.70
2012,03,25,15,06,13.70
2012,03,25,15,07,13.70
2012,03,25,15,08,13.70
2012,03,25,15,09,13.80
2012,03,25,15,10,13.90
2012,03,25,15,11,14.00
2012,03,25,15,12,14.10
2012,03,25,15,13,14.10
2012,03,25,15,14,14.20
2012,03,25,15,15,14.20
2012,03,25,15,16,14.20
2012,03,25,15,17,14.20
2012,03,25,15,18,14.30
2012,03,25,15,19,14.30
2012,03,25,15,20,14.20
2012,03,25,15,21,14.20
2012,03,25,15,22,14.20
2012,03,25,15,23,14.20
2012,03,25,15,24,14.20
2012,03,25,15,25,14.20
2012,03,25,15,26,14.20
2012,03,25,15,27,14.20
2012,03,25,15,28,14.20
2012,03,25,15,29,14.30
2012,03,25,15,30,14.30
2012,03,25,15,31,14.40
2012,03,25,15,32,14.60
2012,03,25,15,33,14.80
2012,03,25,15,34,14.80
2012,03,25,15,35,14.80
2012,03,25,15,36,14.80
2012,03,25,15,37,14.80
2012,03,25,15,38,14.80
2012,03,25,15,39,14.90
2012,03,25,15,40,15.00
2012,03,25,15,41,15.00
2012,03,25,15,42,15.00
2012,03,25,15,43,15.00
2012,03,25,15,44,15.10
2012,03,25,15,45,15.10
2012,03,25,15,46,15.20
2012,03,25,15,47,15.20
2012,03,25,15,48,15.20
2012,03,25,15,49,15.30
2012,03,25,15,50,15.30
2012,03,25,15,51,15.30
2012,03,25,15,52,15.30
2012,03,25,15,53,15.30
2012,03,25,15,54,15.30
2012,03,25,15,55,15.40
2012,03,25,15,56,15.40
2012,03,25,15,57,15.40
2012,03,25,15,58,15.50
2012,03,25,15,59,15.40
2012,03,25,16,00,15.30
2012,03,25,16,01,15.20
2012,03,25,16,02,15.20
2012,03,25,16,03,15.20
2012,03,25,16,04,15.20
2012,03,25,16,05,15.30
2012,03,25,16,06,15.30
2012,03,25,16,07,15.30
2012,03,25,16,08,15.40
2012,03,25,16,09,15.40
2012,03,25,16,10,15.40
2012,03,25,16,11,15.40
2012,03,25,16,12,15.40
2012,03,25,16,13,15.40
2012,03,25,16,14,15.30
2012,03,25,16,15,15.30
2012,03,25,16,16,15.30
2012,03,25,16,17,15.30
2012,03,25,16,18,15.30
2012,03,25,16,19,15.30
2012,03,25,16,20,15.20
2012,03,25,16,21,15.20
2012,03,25,16,22,15.20
2012,03,25,16,23,15.10
2012,03,25,16,24,15.10
2012,03,25,16,25,15.10
2012,03,25,16,26,15.10
2012,03,25,16,27,15.20
2012,03,25,16,28,15.20
2012,03,25,16,29,15.20
2012,03,25,16,30,15.20
2012,03,25,16,31,15.20
2012,03,25,16,32,15.20
2012,03,25,16,33,15.20
2012,03,25,16,34,15.10
2012,03,25,16,35,15.10
2012,03,25,16,36,15.00
2012,03,25,16,37,15.00
2012,03,25,16,38,14.90
2012,03,25,16,39,14.90
2012,03,25,16,40,14.90
2012,03,25,16,41,14.90
2012,03,25,16,42,14.90
2012,03,25,16,43,14.90
2012,03,25,16,44,14.90
2012,03,25,16,45,14.90
2012,03,25,16,46,14.80
2012,03,25,16,47,14.80
2012,03,25,16,48,14.80
2012,03,25,16,49,14.80
2012,03,25,16,50,14.70
2012,03,25,16,51,14.70
2012,03,25,16,52,14.70
2012,03,25,16,53,14.70
2012,03,25,16,54,14.70
2012,03,25,16,55,14.70
2012,03,25,16,56,14.70
2012,03,25,16,57,14.70
2012,03,25,16,58,14.70
2012,03,25,16,59,14.70
2012,03,25,17,00,14.70
2012,03,25,17,01,14.70
2012,03,25,17,02,14.60
2012,03,25,17,03,14.60
2012,03,25,17,04,14.60
2012,03,25,17,05,14.60
2012,03,25,17,06,14.60
2012,03,25,17,07,14.50
2012,03,25,17,08,14.50
2012,03,25,17,09,14.50
2012,03,25,17,10,14.40
2012,03,25,17,11,14.40
2012,03,25,17,12,14.40
2012,03,25,17,13,14.40
2012,03,25,17,14,14.40
2012,03,25,17,15,14.40
2012,03,25,17,16,14.40
2012,03,25,17,17,14.30
2012,03,25,17,18,14.30
2012,03,25,17,19,14.30
2012,03,25,17,20,14.30
2012,03,25,17,21,14.30
2012,03,25,17,22,14.30
2012,03,25,17,23,14.30
2012,03,25,17,24,14.20
2012,03,25,17,25,14.10
2012,03,25,17,26,14.00
2012,03,25,17,27,13.90
2012,03,25,17,28,13.70
2012,03,25,17,29,13.50
2012,03,25,17,30,13.20
2012,03,25,17,31,12.90
2012,03,25,17,32,12.70
2012,03,25,17,33,12.50
2012,03,25,17,34,12.40
2012,03,25,17,35,12.20
2012,03,25,17,36,12.00
2012,03,25,17,37,11.80
2012,03,25,17,38,11.60
2012,03,25,17,39,11.50
2012,03,25,17,40,11.40
2012,03,25,17,41,11.30
2012,03,25,17,42,11.20
2012,03,25,17,43,11.20
2012,03,25,17,44,11.20
2012,03,25,17,45,11.10
2012,03,25,17,46,11.10
2012,03,25,17,47,11.10